This is the latest recevied weather packets stored in our database for station/object KO6HRZ. If no packets are shown the sender has not sent any weather packets the latest 10 day(s).
| Time | Temp. | Humidity | Pressure | Rain* | Wind** | Luminosity | Snow |
|---|---|---|---|---|---|---|---|
| 1777365829 | 10° C | 87% | 1019.7 hPa | 0 mm | - | 0 W/m² | - |
| 1777365229 | 10.56° C | 87% | 1019.8 hPa | 0 mm | - | 0 W/m² | - |
| 1777364625 | 11.11° C | 86% | 1019.8 hPa | 0 mm | - | 0 W/m² | - |
| 1777364024 | 10.56° C | 86% | 1019.7 hPa | 0 mm | - | 0 W/m² | - |
| 1777363423 | 11.11° C | 86% | 1019.9 hPa | 0 mm | - | 0 W/m² | - |
| 1777362822 | 11.67° C | 85% | 1019.9 hPa | 0 mm | - | 0 W/m² | - |
| 1777362218 | 11.67° C | 84% | 1019.8 hPa | 0 mm | - | 0 W/m² | - |
| 1777361618 | 11.67° C | 83% | 1019.5 hPa | 0 mm | - | 0 W/m² | - |
| 1777361018 | 11.67° C | 82% | 1019.3 hPa | 0 mm | - | 0 W/m² | - |
| 1777360418 | 12.22° C | 81% | 1019.2 hPa | 0 mm | - | 0 W/m² | - |
| 1777359818 | 12.22° C | 79% | 1019.2 hPa | 0 mm | - | 0 W/m² | - |
| 1777359217 | 12.78° C | 77% | 1019.2 hPa | 0 mm | - | 0 W/m² | - |
| 1777358612 | 12.78° C | 76% | 1019.2 hPa | 0 mm | - | 0 W/m² | - |
| 1777358007 | 12.78° C | 75% | 1019 hPa | 0 mm | - | 0 W/m² | - |
| 1777357407 | 12.78° C | 74% | 1018.8 hPa | 0 mm | - | 0 W/m² | - |
| 1777356807 | 13.33° C | 73% | 1018.8 hPa | 0 mm | - | 0 W/m² | - |
| 1777356207 | 13.33° C | 72% | 1018.9 hPa | 0 mm | - | 0 W/m² | - |
| 1777355606 | 13.33° C | 71% | 1019 hPa | 0 mm | - | 0 W/m² | - |
| 1777355006 | 13.89° C | 72% | 1018.9 hPa | 0 mm | - | 0 W/m² | - |
| 1777354403 | 13.89° C | 72% | 1018.8 hPa | 0 mm | - | 0 W/m² | - |
| 1777353802 | 13.89° C | 73% | 1018.8 hPa | 0 mm | - | 0 W/m² | - |
| 1777353199 | 13.89° C | 74% | 1018.7 hPa | 0 mm | - | 0 W/m² | - |
| 1777352595 | 13.89° C | 75% | 1018.6 hPa | 0 mm | - | 0 W/m² | - |
| 1777351995 | 14.44° C | 75% | 1018.6 hPa | 0 mm | - | 0 W/m² | - |
| 1777351389 | 14.44° C | 75% | 1018.6 hPa | 0 mm | - | 0 W/m² | - |
* Rain latest hour (hover to see other rain measurements)
** Current wind speed in m/s (hover to see current wind gust speed)